[[{"header":{"parameterUnit":"m.s-1","parameterCategory":1,"la1":30.2991,"la2":30.254,"lo1":-89.0895,"lo2":-89.0444,"dy":0.0017,"dx":0.0017,"nx":28,"ny":28,"refTime":"2023-10-31T21:00:00:Z","depth":0,"parameterNumber":2,"parameterNumberName":"U-component_of_WINDS"},"data":[0,0,0,0,0,0,0,0,0,0,0,0,0,0,0,0,0,0,0,0,0,0,0,0,0,0,0,0,0,0,0,0,0,0,0,0,0,0,0,0,0,0,0,0,0,0,0,0,0,0,0,0,0,0,0,0,0,0,-5.0477,-5.0477,0,-5.0542,-5.0543,-5.0544,-5.0323,-5.0316,-5.031,-5.0303,-5.0373,-5.0381,-5.0389,0,0,0,0,0,0,0,0,0,0,0,0,0,-5.016,-5.0167,-5.0476,-5.0477,-5.0478,-5.0542,-5.0543,-5.0544,-5.0324,-5.0316,-5.0308,-5.03,-5.037,-5.038,-5.0389,0,0,0,0,0,0,0,0,0,0,0,0,0,-5.0269,-5.0169,-5.0476,-5.0376,-5.0368,-5.0542,-5.0543,-5.0544,-5.0326,-5.0316,-5.0306,-5.0296,-5.0367,-5.0379,-5.0391,-5.0666,0,0,-5.0428,-5.0433,0,0,0,0,0,0,0,0,-5.0263,-5.0281,-5.039,-5.0383,-5.0374,-5.0414,-5.0457,-5.0585,-5.0328,-5.0342,-5.0303,-5.0291,-5.0395,-5.0404,-5.0438,-5.0669,-5.0672,-5.0429,-5.0436,-5.0441,-5.0445,0,0,0,0,0,0,0,-5.0256,-5.0277,-5.0502,-5.0392,-5.0382,-5.0328,-5.0332,-5.048,-5.0424,-5.034,-5.0324,-5.0335,-5.0389,-5.0427,-5.0438,-5.0673,-5.0429,-5.0439,-5.0447,-5.0451,-5.113,-5.114,0,0,0,0,0,0,-5.0261,-5.0272,-5.05,-5.0504,-5.0293,-5.0341,-5.0346,-5.0411,-5.0421,-5.0413,-5.0343,-5.0324,-5.0412,-5.0425,-5.044,-5.0761,-5.0441,-5.0453,-5.046,-5.1119,-5.1132,-5.1144,0,0,0,0,0,0,-5.0255,-5.0284,-5.0498,-5.0384,-5.0407,-5.0357,-5.0432,-5.0418,-5.0456,-5.0424,-5.0413,-5.0393,-5.0404,-5.0423,-5.061,-5.0761,-5.0458,-5.0469,-5.1106,-5.1123,-5.1138,-5.1408,0,0,0,0,0,0,-5.0247,-5.0283,-5.0387,-5.0388,-5.0414,-5.0668,-5.0442,-5.0427,-5.0478,-5.0453,-5.0468,-5.0461,-5.0398,-5.0594,-5.0623,-5.0772,-5.0479,-5.1093,-5.1114,-5.1133,-5.1385,-5.1431,-5.147,0,0,0,0,0,-5.0237,-5.0462,-5.0394,-5.0423,-5.0543,-5.0677,-5.0692,-5.0615,-5.0491,-5.0595,-5.0573,-5.046,-5.0739,-5.0615,-5.0645,-5.0801,-5.1083,-5.1108,-5.1131,-5.1366,-5.1422,-5.1469,0,0,0,0,0,0,-5.0481,-5.046,-5.0385,-5.0616,-5.065,-5.064,-5.0769,-5.0677,-5.0747,-5.0722,-5.0623,-5.0628,-5.0833,-5.0835,-5.0697,-5.1066,-5.089,-5.0921,-5.1058,-5.1111,-5.1152,-5.1148,-5.0489,0,0,0,0,0,-5.0562,-5.0673,-5.0648,-5.0854,-5.0875,-5.082,-5.0875,-5.0812,-5.0844,-5.0857,-5.0849,-5.0885,-5.098,-5.1045,-5.1131,-5.1383,-5.1383,-5.1505,-5.1548,-5.1583,-5.1612,-5.1744,-5.1798,-5.1223,-5.1223,-5.1223,0,0,-5.073,-5.0732,-5.0808,-5.0904,-5.0922,-5.1039,-5.0834,-5.0966,-5.1051,-5.0877,-5.1054,-5.105,-5.1082,-5.1303,-5.14,-5.1311,-5.177,-5.1614,-5.1642,-5.1652,-5.1774,-5.1829,-5.1877,-5.124,-5.1237,-5.1234,0,0,-5.1096,-5.1109,-5.1282,-5.1305,-5.1335,-5.1296,-5.1338,-5.1342,-5.1332,-5.1507,-5.1378,-5.1478,-5.1644,-5.1672,-5.1709,-5.2083,-5.1981,-5.2113,-5.2336,-5.2466,-5.2512,-5.2551,-5.2684,-5.2733,-5.2142,-5.2143,-5.2143,0,-5.1302,-5.1472,-5.1383,-5.1524,-5.1569,-5.1415,-5.1589,-5.1616,-5.1674,-5.1709,-5.1607,-5.1812,-5.1823,-5.2047,-5.2139,-5.2173,-5.2217,-5.2112,-5.2512,-5.2551,-5.2587,-5.2713,-5.2763,-5.2158,-5.2157,-5.2155,-5.2154,0,-5.1723,-5.1843,-5.1979,-5.2037,-5.2098,-5.2255,-5.2189,-5.2261,-5.2192,-5.2164,-5.2343,-5.2351,-5.2435,-5.2483,-5.2418,-5.2699,-5.2642,-5.2529,-5.235,-5.2659,-5.2775,-5.2823,-5.2181,-5.2176,-5.2171,-5.2167,0,0,-5.2248,-5.2253,-5.2304,-5.2328,-5.2349,-5.244,-5.2589,-5.267,-5.2733,-5.2778,-5.29,-5.3043,-5.2937,-5.2979,-5.2915,-5.3029,-5.3324,-5.2901,-5.29,-5.2979,-5.3633,-5.3719,-5.3776,-5.3256,-5.3265,-5.3272,-5.363,0,-5.2607,-5.2862,-5.2785,-5.3042,-5.3151,-5.3005,-5.3135,-5.3162,-5.3139,-5.3228,-5.3202,-5.3305,-5.3158,-5.3182,-5.3288,-5.3266,-5.3454,-5.3239,-5.3369,-5.3375,-5.3366,-5.3837,-5.3928,-5.4266,-5.3675,-5.3682,-5.3688,0,-5.3062,-5.3123,-5.3391,-5.3391,-5.3434,-5.3552,-5.3619,-5.3706,-5.3733,-5.3708,-5.3753,-5.3665,-5.3811,-5.363,-5.3829,-5.3685,-5.3733,-5.373,-5.3741,-5.3751,-5.3551,-5.386,-5.4372,-5.4423,-5.3759,-5.3753,-5.3748,0,-5.3417,-5.3566,-5.3745,-5.377,-5.3776,-5.3862,-5.3868,-5.3885,-5.3938,-5.3996,-5.4029,-5.4105,-5.4147,-5.4207,-5.4141,-5.4016,-5.435,-5.4164,-5.4333,-5.4335,-5.4411,-5.4407,-5.4939,-5.4442,-5.4442,-5.4441,-5.444,0,-5.3827,-5.3997,-5.3904,-5.4015,-5.42,-5.4109,-5.4294,-5.4284,-5.43,-5.4405,-5.4283,-5.4385,-5.4291,-5.4384,-5.4334,-5.4506,-5.4525,-5.4509,-5.4494,-5.452,-5.4523,-5.4551,-5.4526,-5.4454,-5.4451,-5.4448,-5.4446,0,-5.4257,-5.4201,-5.4386,-5.4376,-5.4377,-5.4514,-5.4504,-5.4606,-5.4573,-5.4707,-5.4734,-5.4683,-5.4786,-5.4725,-5.4831,-5.4796,-5.502,-5.4972,-5.5011,-5.4999,-5.5171,-5.5156,-5.574,-5.5811,-5.5269,-5.5275,-5.5279,0,-5.4522,-5.4649,-5.4651,-5.4713,-5.4727,-5.4828,-5.488,-5.4795,-5.4855,-5.4894,-5.4991,-5.5082,-5.5151,-5.5322,-5.5295,-5.5374,-5.5327,-5.5526,-5.5339,-5.5361,-5.533,-5.5323,-5.5335,-5.5565,-5.5571,-5.5576,-5.5581,0,-5.5,-5.4965,-5.5046,-5.5118,-5.5183,-5.5236,-5.5278,-5.5335,-5.5249,-5.5323,-5.5426,-5.548,-5.5586,-5.5678,-5.5745,-5.5751,-5.5653,-5.564,-5.5683,-5.5712,-5.5729,-5.5721,-5.5115,-5.5627,-5.5622,-5.5619,-5.5617,-5.5615,-5.5354,-5.5459,-5.5477,-5.5571,-5.5593,-5.5635,-5.5729,-5.5707,-5.5791,-5.587,-5.5814,-5.5936,-5.5957,-5.6037,-5.6055,-5.6149,-5.6068,-5.6131,-5.6147,-5.6164,-5.6188,-5.5714,-5.6161,-5.6159,-5.6158,-5.6157,-5.6156,0,-5.5825,-5.5828,-5.5915,-5.5977,-5.6051,-5.595,-5.599,-5.6058,-5.6167,-5.6195,-5.6265,-5.6382,-5.6471,-5.645,-5.6529,-5.6608,-5.6565,-5.6632,-5.6625,-5.6628,-5.6255,-5.621,-5.6665,-5.6665,-5.6665,-5.6665,-5.6665,-5.6665,-5.6078,-5.625,-5.6218,-5.6399,-5.6401,-5.6519,-5.6551,-5.6588,-5.661,-5.6746,-5.6819,-5.6804,-5.6812,-5.689,-5.6967,-5.6958,-5.6993,-5.7077,-5.7053,-5.6705,-5.6655,-5.6607,-5.6563,-5.7086,-5.7086,-5.7417,-5.742,-5.7422]},{"header":{"parameterUnit":"m.s-1","parameterCategory":1,"la1":30.2991,"la2":30.254,"lo1":-89.0895,"lo2":-89.0444,"dy":0.0017,"dx":0.0017,"nx":28,"ny":28,"refTime":"2023-10-31T21:00:00:Z","depth":0,"parameterNumber":3,"parameterNumberName":"V-component_of_WINDS"},"data":[0,0,0,0,0,0,0,0,0,0,0,0,0,0,0,0,0,0,0,0,0,0,0,0,0,0,0,0,0,0,0,0,0,0,0,0,0,0,0,0,0,0,0,0,0,0,0,0,0,0,0,0,0,0,0,0,0,0,-4.8385,-4.8386,0,-4.8449,-4.845,-4.8451,-4.8401,-4.8399,-4.8397,-4.8395,-4.8457,-4.8461,-4.8464,0,0,0,0,0,0,0,0,0,0,0,0,0,-4.8213,-4.8217,-4.8385,-4.8386,-4.8387,-4.8449,-4.845,-4.8451,-4.8401,-4.8399,-4.8396,-4.8394,-4.8456,-4.846,-4.8465,0,0,0,0,0,0,0,0,0,0,0,0,0,-4.8284,-4.8218,-4.8385,-4.8369,-4.8369,-4.8449,-4.845,-4.8451,-4.8402,-4.8399,-4.8395,-4.8392,-4.8455,-4.846,-4.8465,-4.8563,0,0,-4.8482,-4.8484,0,0,0,0,0,0,0,0,-4.828,-4.829,-4.8371,-4.8371,-4.837,-4.8414,-4.8412,-4.8489,-4.8403,-4.8389,-4.8395,-4.8391,-4.8445,-4.8451,-4.847,-4.8566,-4.8569,-4.8483,-4.8486,-4.8488,-4.849,0,0,0,0,0,0,0,-4.8275,-4.8287,-4.841,-4.8372,-4.8372,-4.8357,-4.8364,-4.8427,-4.8434,-4.839,-4.8387,-4.8395,-4.8444,-4.8465,-4.8471,-4.857,-4.8482,-4.8487,-4.8491,-4.8493,-4.8745,-4.8748,0,0,0,0,0,0,-4.8272,-4.8283,-4.8408,-4.8412,-4.8316,-4.8363,-4.837,-4.8403,-4.8433,-4.8435,-4.8398,-4.8393,-4.8457,-4.8465,-4.8473,-4.8587,-4.8488,-4.8493,-4.8496,-4.8742,-4.8746,-4.8749,0,0,0,0,0,0,-4.8269,-4.8284,-4.8406,-4.8347,-4.8361,-4.8369,-4.8407,-4.8406,-4.8427,-4.8439,-4.844,-4.8418,-4.8455,-4.8466,-4.8541,-4.8589,-4.8496,-4.8501,-4.8738,-4.8743,-4.8748,-4.8817,0,0,0,0,0,0,-4.8264,-4.8283,-4.8322,-4.8348,-4.8365,-4.8474,-4.841,-4.841,-4.8437,-4.843,-4.8458,-4.846,-4.8453,-4.8533,-4.8546,-4.8594,-4.8505,-4.8733,-4.874,-4.8746,-4.8811,-4.8824,-4.8836,0,0,0,0,0,-4.8258,-4.8339,-4.8324,-4.834,-4.8414,-4.8477,-4.8486,-4.8478,-4.8441,-4.8479,-4.8486,-4.8459,-4.8582,-4.8541,-4.8555,-4.8606,-4.873,-4.8738,-4.8746,-4.8805,-4.8821,-4.8835,0,0,0,0,0,0,-4.8318,-4.8342,-4.8326,-4.8419,-4.8446,-4.8468,-4.8516,-4.8496,-4.8534,-4.8526,-4.8513,-4.852,-4.8598,-4.861,-4.8564,-4.87,-4.865,-4.8661,-4.869,-4.8706,-4.8718,-4.8712,-4.851,0,0,0,0,0,-4.8342,-4.8393,-4.8411,-4.8491,-4.8505,-4.8508,-4.8536,-4.8527,-4.8554,-4.8565,-4.8578,-4.8605,-4.8649,-4.8678,-4.872,-4.8812,-4.8816,-4.8854,-4.8867,-4.8877,-4.8886,-4.8932,-4.8948,-4.8775,-4.8775,-4.8774,0,0,-4.8392,-4.8412,-4.8445,-4.8503,-4.8523,-4.8573,-4.8519,-4.8575,-4.8611,-4.8573,-4.8644,-4.8655,-4.8683,-4.8767,-4.8804,-4.8779,-4.8934,-4.8887,-4.8895,-4.8898,-4.8941,-4.8958,-4.8972,-4.878,-4.8779,-4.8778,0,0,-4.8509,-4.853,-4.8597,-4.8618,-4.8649,-4.865,-4.8666,-4.8691,-4.8697,-4.8768,-4.8739,-4.8782,-4.8859,-4.8879,-4.89,-4.902,-4.8995,-4.9034,-4.9099,-4.9144,-4.9157,-4.9169,-4.9209,-4.9224,-4.9044,-4.9044,-4.9044,0,-4.8567,-4.8643,-4.8634,-4.8691,-4.8716,-4.8684,-4.875,-4.8771,-4.8814,-4.883,-4.8802,-4.8896,-4.8913,-4.8999,-4.9028,-4.9047,-4.9062,-4.903,-4.9156,-4.9168,-4.9179,-4.9217,-4.9232,-4.9048,-4.9048,-4.9047,-4.9047,0,-4.8711,-4.8764,-4.8814,-4.8855,-4.8886,-4.8948,-4.8945,-4.8977,-4.8965,-4.8968,-4.9039,-4.9058,-4.9101,-4.9122,-4.9111,-4.9205,-4.9188,-4.9159,-4.9107,-4.92,-4.9235,-4.925,-4.9054,-4.9053,-4.9051,-4.905,0,0,-4.8867,-4.8902,-4.892,-4.8937,-4.8967,-4.9007,-4.9066,-4.9108,-4.9134,-4.9164,-4.9211,-4.9276,-4.9248,-4.9271,-4.9262,-4.9302,-4.9391,-4.9266,-4.9267,-4.9286,-4.9492,-4.9512,-4.9529,-4.9376,-4.9379,-4.9381,-4.9489,0,-4.8983,-4.9086,-4.9077,-4.9174,-4.922,-4.9189,-4.924,-4.9263,-4.9267,-4.9306,-4.931,-4.9354,-4.9316,-4.9329,-4.9367,-4.9372,-4.9432,-4.9365,-4.9416,-4.9418,-4.9408,-4.9548,-4.957,-4.9671,-4.9503,-4.9505,-4.9507,0,-4.9131,-4.9166,-4.9267,-4.9287,-4.9306,-4.9352,-4.9388,-4.9427,-4.9451,-4.945,-4.9475,-4.9458,-4.9514,-4.9463,-4.9538,-4.9493,-4.9513,-4.9518,-4.9522,-4.9525,-4.9467,-4.9552,-4.9704,-4.9718,-4.9529,-4.9527,-4.9525,0,-4.9231,-4.9303,-4.9371,-4.9387,-4.9414,-4.9446,-4.9458,-4.9479,-4.9504,-4.9536,-4.9551,-4.9589,-4.9609,-4.9637,-4.963,-4.9593,-4.9705,-4.9654,-4.9704,-4.9704,-4.9728,-4.9726,-4.9882,-4.9746,-4.9746,-4.9745,-4.9745,0,-4.9359,-4.9421,-4.9416,-4.9458,-4.9525,-4.9514,-4.9581,-4.9589,-4.9608,-4.9649,-4.9625,-4.9664,-4.9653,-4.969,-4.9685,-4.9746,-4.9756,-4.9755,-4.9753,-4.9756,-4.9756,-4.9768,-4.9759,-4.9749,-4.9748,-4.9748,-4.9747,0,-4.9482,-4.9481,-4.9553,-4.9572,-4.9578,-4.9626,-4.9641,-4.9679,-4.9681,-4.9733,-4.9744,-4.9746,-4.9789,-4.9785,-4.9833,-4.9829,-4.9904,-4.9894,-4.9896,-4.9893,-4.9942,-4.9936,-5.0109,-5.013,-4.9983,-4.9984,-4.9985,0,-4.9562,-4.9609,-4.9632,-4.9658,-4.9672,-4.9715,-4.9739,-4.9729,-4.9756,-4.9785,-4.9819,-4.986,-4.9891,-4.9961,-4.9965,-5.0001,-4.999,-5.0048,-4.9995,-4.9996,-4.9987,-4.9983,-4.9986,-5.0058,-5.006,-5.0061,-5.0062,0,-4.9704,-4.9701,-4.9738,-4.9774,-4.9804,-4.9833,-4.9858,-4.988,-4.9872,-4.9903,-4.9946,-4.9971,-5.0019,-5.0058,-5.0092,-5.0102,-5.008,-5.0079,-5.0092,-5.0095,-5.0092,-5.0091,-4.9921,-5.0075,-5.0074,-5.0073,-5.0072,-5.0071,-4.9806,-4.9844,-4.9866,-4.9907,-4.9925,-4.9948,-4.9984,-4.9989,-5.0026,-5.0064,-5.0056,-5.0104,-5.0123,-5.0166,-5.018,-5.0215,-5.0194,-5.0214,-5.0218,-5.0223,-5.0227,-5.0089,-5.0222,-5.0222,-5.0221,-5.0221,-5.0221,0,-4.9943,-4.9955,-4.9993,-5.0029,-5.006,-5.0038,-5.0064,-5.0091,-5.0133,-5.0154,-5.0185,-5.0233,-5.0271,-5.0278,-5.0313,-5.034,-5.033,-5.0349,-5.0346,-5.0348,-5.0246,-5.0229,-5.0356,-5.0356,-5.0356,-5.0356,-5.0356,-5.0356,-5.0019,-5.0081,-5.008,-5.015,-5.0161,-5.0208,-5.0224,-5.0245,-5.0261,-5.0315,-5.0346,-5.0351,-5.0365,-5.0401,-5.0433,-5.0434,-5.0446,-5.0469,-5.0465,-5.0369,-5.0356,-5.0343,-5.0327,-5.0472,-5.0473,-5.0564,-5.0565,-5.0566]}]]